Regional Weather Roundup
Issued by NWS

Home | Current Version | Previous Version | Text Only | Print | Product List | Glossary Off
Versions: 1 2 3 4 5 6 7 8 9 10 11 12 13 14 15 16 17 18 19 20 21 22 23 24 25 26 27 28 29 30 31 32 33 34 35 36 37 38 39 40 41 42 43 44 45 46 47 48 49 50

000
ASUS43 KMPX 010410
RWRMN
WEATHER ROUNDUP FOR MINNESOTA
NATIONAL WEATHER SERVICE TWIN CITIES/CHANHASSEN MN
1100 PM CDT TUE JUN 30 2015


NOTE: "FAIR" INDICATES FEW OR NO CLOUDS BELOW 12,000 FEET WITH NO
SIGNIFICANT WEATHER AND/OR OBSTRUCTIONS TO VISIBILITY. N/A MEANS
CURRENT SKY AND/OR WEATHER CONDITIONS ARE NOT AVAILABLE.

MNZ060>063-068>070-010500-
   Twin Cities Metro

CITY           SKY/WX    TMP DP  RH WIND       PRES   REMARKS
TWIN CITIES    MOCLDY    67  55  65 E8        29.96R
ST PAUL        PTCLDY    65  55  70 E7        29.96R
CRYSTAL        PTCLDY    66  56  70 E5        29.95R
BLAINE         PTCLDY    64  57  77 E6        29.96R
LAKEVILLE      MOCLDY    61  57  88 CALM      29.96S
EDEN PRAIRIE   MOCLDY    68  56  65 E7        29.94S
SOUTH ST PAUL  PTCLDY    65  54  66 CALM      29.96S
LAKE ELMO      FAIR      63  54  72 E6        29.97S
$$
MNZ001>005-007-008-013>017-022>024-027-028-010500-
   Northwest Minnesota

CITY           SKY/WX    TMP DP  RH WIND       PRES   REMARKS
BEMIDJI        MOCLDY    60  55  82 CALM      29.96R
HALLOCK        MOCLDY    63  61  94 CALM      29.92S
ROSEAU         MOCLDY    63  57  82 CALM      29.95S HAZE
WARROAD        MOCLDY    63  55  77 CALM      29.96R
THIEF RVR FALL CLOUDY    64  54  68 CALM      29.94S
CROOKSTON      CLOUDY    66  55  68 E3        29.93F
FOSSTON        CLOUDY    57  50  77 CALM      29.95S
DETROIT LAKES  CLOUDY    68  59  73 NE3       29.95S
MOORHEAD       CLOUDY    68  63  83 CALM      29.92S
PARK RAPIDS    CLOUDY    68  56  65 E5        29.95R
MAHNOMEN       FAIR      64  60  85 E5        29.94S
$$
MNZ006-009>011-018-025>026-010500-
   North Central Minnesota

CITY           SKY/WX    TMP DP  RH WIND       PRES   REMARKS
BAUDETTE       MOCLDY    60  55  83 E3        29.95S
FLAG ISLAND    MOCLDY    70  52  52 S7        29.94R
INTL FALLS     MOCLDY    52  50  93 CALM      29.96S
WASKISH        PTCLDY    61  55  82 E5        29.96S
BIG FORK       MOCLDY    57  54  88 CALM      29.97S
LONGVILLE      CLOUDY    57  55  94 CALM      29.96R
GRAND RAPIDS   MOCLDY    57  52  82 E5        29.97R
CRANE LAKE     PTCLDY    50  50 100 CALM      29.98F
COOK           MOCLDY    54  52  94 CALM      29.98S
WALKER         MOCLDY    59  53  81 CALM      29.95S
$$
MNZ012-019>021-037-010500-
   Northeast Minnesota

CITY           SKY/WX    TMP DP  RH WIND       PRES   REMARKS
DULUTH         CLEAR     51  46  83 E5        29.99R
ELY            PTCLDY    54  48  82 CALM      29.98S
HIBBING        MOCLDY    54  51  90 CALM      29.98R
EVELETH        PTCLDY    52  50  93 CALM      30.00R
DULUTH HARBOR  CLEAR     57  54  88 NE12      29.99S
TWO HARBORS    CLEAR     52  46  82 N2        29.98S
SILVER BAY     CLEAR     46  45  93 CALM      29.99S
GRAND MARAIS     N/A     48  42  80 NW3       30.00S
G MARAIS ARPRT CLEAR     43  37  81 CALM      30.01F
$$
MNZ029>031-032-039>041-046>048-054>057-064-010500-
   West Central Minnesota

CITY           SKY/WX    TMP DP  RH WIND       PRES   REMARKS
FERGUS FALLS   CLOUDY    66  61  82 NE3       29.92F
WHEATON        MOCLDY    63  61  94 CALM      29.94R
MORRIS         MOCLDY    66  63  88 E5        29.91S
ALEXANDRIA     CLOUDY    68  57  68 SE5       29.95R
ELBOW LAKE     FAIR      67  62  85 CALM      29.93S
WADENA           N/A     66  55  68 CALM      29.94S
GLENWOOD       MOCLDY    64  61  88 E3        29.94F
APPLETON       MOCLDY    64  61  88 CALM      29.92R
BENSON         PTCLDY    66  61  82 CALM      29.92S
ORTONVILLE     PTCLDY    64  59  82 E5        29.92R
MADISON        MOCLDY    63  61  94 CALM      29.92R
WILLMAR        FAIR      66  63  88 E6        29.95R
$$
MNZ033>034-036-042>043-049>051-058-059-010500-
   Central Minnesota

CITY           SKY/WX    TMP DP  RH WIND       PRES   REMARKS
ST CLOUD       MOCLDY    64  58  80 E3        29.95R
SAUK CENTRE    FAIR      66  59  79 E3        29.95R
PAYNESVILLE    MOCLDY    64  56  76 E6        29.95R
AITKIN         MOCLDY    63  54  72 CALM      29.95R
PINE RIVER       N/A     61  57  88 CALM      29.98S
BRAINERD       CLOUDY    64  58  80 SE7       29.96R
STAPLES        CLOUDY    64  55  72 CALM      29.95R
LONG PRAIRIE   FAIR      63  55  77 E3        29.95S
LITTLE FALLS   CLOUDY    64  55  72 SE7       29.95R
LITCHFIELD     CLOUDY    66  63  88 E5        29.95S
BUFFALO        MOCLDY    65  56  72 E5        29.96S
MAPLE LAKE     MOCLDY    67  59  77 E5        29.96R
$$
MNZ037-044-045-052-053-010500-
   East Central Minnesota

CITY           SKY/WX    TMP DP  RH WIND       PRES   REMARKS
PRINCETON      MOCLDY    64  57  77 CALM      29.97R
MORA           PTCLDY    55  52  88 CALM      29.99R
CAMBRIDGE      PTCLDY    64  54  68 CALM      29.95R
RUSH CITY      MOCLDY    59  54  83 CALM      29.96S
MOOSE LAKE     PTCLDY    54  50  87 NE3       29.97R
HINCKLEY       FAIR      55  55 100 CALM      29.97R
CLOQUET        PTCLDY    52  46  82 CALM      29.99S
MCGREGOR       MOCLDY    59  54  82 CALM      29.98R
$$
MNZ071>073-080-081-089-090-097-098-010500-
   Southwest Minnesota

CITY           SKY/WX    TMP DP  RH WIND       PRES   REMARKS
MONTEVIDEO     FAIR      64  61  88 SE3       29.92F
GRANITE FALLS  PTCLDY    65  61  85 CALM      29.93F
CANBY          MOCLDY    65  62  90 SE3       29.92S
MARSHALL       MOCLDY    66  57  72 SE7         N/A
REDWOOD FALLS  MOCLDY    67  60  78 E6        29.92S
OLIVIA         PTCLDY    64  57  77 SE5       29.92F
PIPESTONE      PTCLDY    66  61  82 SE7       29.92S
WINDOM         MOCLDY    63  59  88 CALM      29.94S
WORTHINGTON    CLOUDY    63  57  82 E6        29.94S
JACKSON        CLOUDY    64  61  88 E6        29.94F
TRACY          MOCLDY    66  62  89 SE5       29.92F
SLAYTON        PTCLDY    65  61  87 CALM      29.94S
$$
MNZ065>067-074>077-082>085-091>093-010500-
   South Central Minnesota

CITY           SKY/WX    TMP DP  RH WIND       PRES   REMARKS
MANKATO        MOCLDY    66  57  72 E8        29.94S
NEW ULM        MOCLDY    66  61  82 E3        29.94R
ST JAMES       MOCLDY    66  61  82 CALM      29.95R
FAIRMONT       CLOUDY    64  57  77 E6        29.93F
GLENCOE        CLOUDY    67  62  84 E3        29.95R
FARIBAULT      MOCLDY    64  57  77 NE5       29.95S
OWATONNA       MOCLDY    63  57  82 E3        29.95F
WASECA         MOCLDY    64  55  72 E7        29.96S
ALBERT LEA     PTCLDY    64  57  77 E5        29.94F
$$
MNZ078>079-086>088-094>096-010500-
   Southeast Minnesota

CITY           SKY/WX    TMP DP  RH WIND       PRES   REMARKS
ROCHESTER      CLEAR     63  54  72 NE3       29.97R
RED WING       CLEAR     63  54  72 E7        29.95S
STANTON        PTCLDY    63  57  82 CALM      29.95R
DODGE CENTER   PTCLDY    61  57  88 NE3       29.96F
WINONA         CLEAR     63  52  67 E5        29.95F
AUSTIN         PTCLDY    63  57  82 CALM      29.95F
PRESTON        PTCLDY    60  55  81 N3        29.96S
$$
ABBREVIATIONS USED IN REMARKS
   TC - TEMPERATURES IN CELSIUS
  WCI - WIND CHILL INDEX
   HX - HEAT INDEX
  VSB - VISIBILITY
$$



USA.gov is the U.S. government's official web portal to all federal, state and local government web resources and services.